TimeCDT,TemperatureF,Dew PointF,Humidity,Sea Level PressureIn,VisibilityMPH,Wind Direction,Wind SpeedMPH,Gust SpeedMPH,PrecipitationIn,Events,Conditions,WindDirDegrees,DateUTC
12:15 AM,79.0,74.3,85,29.86,10.0,ESE,4.6,-,N/A,,Clear,120,2013-09-27 05:15:00
12:35 AM,78.3,74.3,88,29.86,10.0,ESE,3.5,-,N/A,,Clear,110,2013-09-27 05:35:00
12:55 AM,77.4,73.8,89,29.86,10.0,Calm,Calm,-,N/A,,Clear,0,2013-09-27 05:55:00
1:15 AM,77.5,73.9,89,29.86,10.0,SE,4.6,-,N/A,,Clear,130,2013-09-27 06:15:00
1:35 AM,77.9,73.9,88,29.86,10.0,SE,4.6,-,N/A,,Clear,130,2013-09-27 06:35:00
1:55 AM,77.7,74.1,89,29.85,10.0,ESE,3.5,-,N/A,,Clear,120,2013-09-27 06:55:00
2:15 AM,77.2,73.9,90,29.85,10.0,ESE,4.6,-,N/A,,Clear,120,2013-09-27 07:15:00
2:35 AM,77.4,74.3,90,29.85,10.0,SE,5.8,-,N/A,,Scattered Clouds,130,2013-09-27 07:35:00
2:55 AM,77.9,74.3,89,29.85,10.0,SE,4.6,-,N/A,,Scattered Clouds,130,2013-09-27 07:55:00
3:15 AM,77.9,74.3,89,29.84,10.0,SE,5.8,-,N/A,,Scattered Clouds,130,2013-09-27 08:15:00
3:35 AM,77.7,74.3,89,29.84,10.0,ESE,5.8,-,N/A,,Scattered Clouds,120,2013-09-27 08:35:00
3:55 AM,77.5,74.5,90,29.83,10.0,SE,5.8,-,N/A,,Clear,130,2013-09-27 08:55:00
4:15 AM,77.4,74.3,90,29.83,10.0,ESE,5.8,-,N/A,,Scattered Clouds,120,2013-09-27 09:15:00
4:35 AM,77.4,74.5,91,29.83,10.0,ESE,4.6,-,N/A,,Scattered Clouds,120,2013-09-27 09:35:00
4:55 AM,77.2,74.5,91,29.82,10.0,ESE,4.6,-,N/A,,Scattered Clouds,110,2013-09-27 09:55:00
5:15 AM,77.0,74.3,91,29.82,10.0,ESE,4.6,-,N/A,,Scattered Clouds,120,2013-09-27 10:15:00
5:35 AM,77.0,74.5,92,29.82,10.0,ESE,4.6,-,N/A,,Scattered Clouds,110,2013-09-27 10:35:00
5:55 AM,77.0,74.5,92,29.83,10.0,ESE,3.5,-,N/A,,Mostly Cloudy,110,2013-09-27 10:55:00
6:15 AM,76.6,74.3,92,29.83,10.0,ESE,4.6,-,N/A,,Mostly Cloudy,110,2013-09-27 11:15:00
6:35 AM,76.3,74.1,93,29.83,10.0,ESE,4.6,-,N/A,,Scattered Clouds,110,2013-09-27 11:35:00
6:55 AM,75.9,73.8,93,29.84,7.0,ESE,4.6,-,N/A,,Clear,120,2013-09-27 11:55:00
7:15 AM,75.7,73.9,94,29.84,7.0,SE,4.6,-,N/A,,Clear,130,2013-09-27 12:15:00
7:35 AM,76.1,74.3,94,29.85,7.0,ESE,4.6,-,N/A,,Clear,120,2013-09-27 12:35:00
7:55 AM,76.1,74.3,94,29.85,5.0,ESE,4.6,-,N/A,,Clear,120,2013-09-27 12:55:00
8:15 AM,75.7,73.9,94,29.86,7.0,ESE,5.8,-,N/A,,Clear,120,2013-09-27 13:15:00
8:35 AM,76.8,74.3,92,29.86,10.0,SE,5.8,-,N/A,,Clear,130,2013-09-27 13:35:00
8:55 AM,78.3,74.5,88,29.86,10.0,SE,9.2,-,N/A,,Clear,140,2013-09-27 13:55:00
9:15 AM,79.9,75.2,86,29.86,10.0,SE,11.5,-,N/A,,Clear,140,2013-09-27 14:15:00
9:35 AM,81.7,75.2,81,29.86,10.0,SE,12.7,17.3,N/A,,Scattered Clouds,140,2013-09-27 14:35:00
9:55 AM,83.1,74.7,76,29.87,10.0,SE,12.7,16.1,N/A,,Mostly Cloudy,140,2013-09-27 14:55:00
10:15 AM,83.5,74.5,74,29.87,10.0,SE,12.7,18.4,N/A,,Scattered Clouds,140,2013-09-27 15:15:00
10:35 AM,86.5,74.3,67,29.87,10.0,SSE,15.0,-,N/A,,Mostly Cloudy,150,2013-09-27 15:35:00
10:55 AM,87.4,74.3,65,29.87,10.0,SSE,13.8,17.3,N/A,,Mostly Cloudy,150,2013-09-27 15:55:00
11:15 AM,86.5,74.1,66,29.88,10.0,SSE,13.8,-,N/A,,Scattered Clouds,150,2013-09-27 16:15:00
11:35 AM,87.1,74.1,65,29.87,10.0,SSE,11.5,-,N/A,,Scattered Clouds,150,2013-09-27 16:35:00
11:55 AM,90.0,74.1,59,29.87,10.0,SE,13.8,-,N/A,,Mostly Cloudy,140,2013-09-27 16:55:00
12:15 PM,89.8,74.5,61,29.87,10.0,SSE,8.1,18.4,N/A,,Scattered Clouds,160,2013-09-27 17:15:00
12:35 PM,90.9,74.5,58,29.86,10.0,SSE,10.4,17.3,N/A,,Scattered Clouds,150,2013-09-27 17:35:00
12:55 PM,90.5,74.1,58,29.85,10.0,SSE,13.8,19.6,N/A,,Mostly Cloudy,150,2013-09-27 17:55:00
1:15 PM,93.0,73.8,53,29.85,10.0,SE,15.0,20.7,N/A,,Mostly Cloudy,140,2013-09-27 18:15:00
1:35 PM,92.8,73.4,53,29.84,10.0,South,12.7,-,N/A,,Scattered Clouds,180,2013-09-27 18:35:00
1:55 PM,93.4,72.7,51,29.83,10.0,SSE,13.8,18.4,N/A,,Scattered Clouds,150,2013-09-27 18:55:00
2:15 PM,95.0,72.3,48,29.81,10.0,SE,15.0,21.9,N/A,,Clear,140,2013-09-27 19:15:00
2:35 PM,94.8,72.7,49,29.80,10.0,ESE,12.7,20.7,N/A,,Scattered Clouds,120,2013-09-27 19:35:00
2:55 PM,96.3,73.2,47,29.79,10.0,SE,12.7,-,N/A,,Mostly Cloudy,140,2013-09-27 19:55:00
3:15 PM,94.1,72.5,49,29.78,10.0,SE,15.0,19.6,N/A,,Mostly Cloudy,130,2013-09-27 20:15:00
3:35 PM,94.1,72.9,50,29.78,10.0,SSE,12.7,17.3,N/A,,Scattered Clouds,150,2013-09-27 20:35:00
3:55 PM,93.4,72.7,51,29.78,10.0,SE,15.0,18.4,N/A,,Scattered Clouds,140,2013-09-27 20:55:00
4:15 PM,92.5,76.5,59,29.78,10.0,ESE,16.1,20.7,N/A,,Scattered Clouds,110,2013-09-27 21:15:00
4:35 PM,92.8,76.1,58,29.78,10.0,East,16.1,24.2,N/A,,Clear,100,2013-09-27 21:35:00
4:55 PM,88.9,76.8,67,29.78,10.0,ESE,11.5,17.3,N/A,,Clear,120,2013-09-27 21:55:00
5:15 PM,89.1,77.2,68,29.78,10.0,East,10.4,-,N/A,,Clear,100,2013-09-27 22:15:00
5:35 PM,89.1,77.9,69,29.78,10.0,East,10.4,18.4,N/A,,Clear,100,2013-09-27 22:35:00
5:55 PM,88.0,78.1,72,29.78,10.0,East,8.1,-,N/A,,Clear,100,2013-09-27 22:55:00
6:15 PM,87.4,78.3,74,29.77,10.0,ESE,11.5,17.3,N/A,,Clear,110,2013-09-27 23:15:00
6:35 PM,87.1,77.9,74,29.78,10.0,ESE,10.4,19.6,N/A,,Clear,110,2013-09-27 23:35:00
6:55 PM,87.3,77.7,73,29.78,10.0,ESE,12.7,-,N/A,,Clear,110,2013-09-27 23:55:00
7:15 PM,86.4,77.9,76,29.78,10.0,ESE,12.7,16.1,N/A,,Clear,110,2013-09-28 00:15:00
7:35 PM,85.5,77.4,77,29.79,10.0,ESE,11.5,18.4,N/A,,Clear,120,2013-09-28 00:35:00
7:55 PM,84.6,77.4,79,29.80,10.0,ESE,11.5,-,N/A,,Clear,110,2013-09-28 00:55:00
8:15 PM,84.2,77.4,80,29.80,10.0,ESE,10.4,-,N/A,,Clear,110,2013-09-28 01:15:00
8:35 PM,83.5,77.2,81,29.81,10.0,ESE,11.5,17.3,N/A,,Clear,110,2013-09-28 01:35:00
8:55 PM,83.3,77.2,82,29.82,7.0,ESE,9.2,16.1,N/A,,Clear,120,2013-09-28 01:55:00
9:15 PM,82.8,77.2,83,29.83,7.0,ESE,9.2,-,N/A,,Clear,120,2013-09-28 02:15:00
9:35 PM,82.4,77.2,84,29.83,7.0,ESE,8.1,-,N/A,,Clear,120,2013-09-28 02:35:00
9:55 PM,82.0,77.2,85,29.84,7.0,SE,8.1,-,N/A,,Clear,130,2013-09-28 02:55:00
10:15 PM,81.9,77.2,86,29.85,7.0,SE,8.1,-,N/A,,Clear,130,2013-09-28 03:15:00
10:35 PM,81.7,77.2,86,29.85,7.0,SE,8.1,-,N/A,,Clear,130,2013-09-28 03:35:00
10:55 PM,81.5,77.0,86,29.85,7.0,ESE,8.1,-,N/A,,Clear,120,2013-09-28 03:55:00
11:15 PM,81.1,77.0,87,29.86,7.0,ESE,8.1,-,N/A,,Clear,120,2013-09-28 04:15:00
11:35 PM,81.0,77.0,88,29.86,5.0,ESE,6.9,-,N/A,,Scattered Clouds,120,2013-09-28 04:35:00
11:55 PM,80.6,77.0,89,29.86,5.0,SE,5.8,-,N/A,,Scattered Clouds,130,2013-09-28 04:55:00